Find Kosmos-1287

NORAD ID: 12636 Int'l Des: 1981-074 Owner: GUKOS Country: SU operational
LEOCIRCULAR

Live-Position

3D-Globus wird geladen...

Über Kosmos-1287

Beschreibung wird geladen...

Nächste Überflüge

Passes for default location (London). Set your location on the main map for personalized predictions.

Höhenverlauf

Loading altitude history...

Zweizeiliger Elementsatz

1 12636U 81074A 26105.59526076 -.00000009 00000-0 43710-4 0 9991
2 12636 74.0313 286.0418 0030295 103.4174 257.0253 12.44354382 30649
Epoch: 15. Apr. 2026 • Age: 12 hours

Aktueller Status

Höhe 1474.7 km
Geschwindigkeit 7.14 km/s
Subsatellitenpunkt 58.96°N, 164.43°W
Startdatum 6. Aug. 1981
Alter 44.6 years
Typ other

Technische Details

Klassifizierung Payload
Masse 60.00 kg
Trockenmasse 60.00 kg
Gesamtmasse 60.00 kg
Länge 0.80 m
Durchmesser 0.80 m
Spannweite 0.80 m
Form Poly
Hersteller NPOPM
Bus-Typ Strela-1 11F625
Phasenstatus In Orbit
Besitzer/Staat GUKOS/SU

Most Searched